GLOBALSTAR M038 (25624 NORAD) Tracking and Keplerian Element Data

This shows tracking and keplerian element data for the satellite.

Feedback or suggestion? Click here.




ElementValue
Catalog25624
NameGLOBALSTAR M038
Epoch Orbit18593
Epoch Day35.16921088
Epoch Year2025
RAAN94.647
Inclination51.9973
Eccentricity0.0002442
Argument of Perigee135.9548
Mean Anonmoly240.4753
Mean Motion12.32519873
Decay Rate-6.3E-07
L11 25624U 99004D 25035.16921088 -.00000063 00000+0 26120-3 0 9994
L22 25624 51.9973 94.6470 0002442 135.9548 240.4753 12.32519873185934



Live tracking and technical data element details for GLOBALSTAR M038 (NORAD 25624). GLOBALSTAR M038 can be tracked NOW for your location showing map with azimuth and elevation plus other details from your city location.







IsCatalogInMostPopularTable: catalog: 25624, numindb: 340
Update: records affected: 1



GetName: 25624 GLOBALSTAR M038

Hit Count: updated at: Sat, 17 May 2025 08:55:31 GMT